TDRS 8

Last updated on Tue Sep 22 2026 00:03:06 GMT+0000 (Coordinated Universal Time)

1 26388U 00034A 26264.60723044 -.00000191 00000+0 00000+0 0 9990 2 26388 12.8343 30.4851 0001060 126.3872 146.9882 1.00269622 96143
UTC large
Height (km)
Speed (km/s)
/
Latitude / Longitude
Inclination (degrees)
Orbital Period (minutes)
Azimuth
Elevation
Range (km)
Doppler Factor

Next 0 passes for location: London (51.5072 / 0.1276)

No passes found over London.
TDRS 8